Tracking 28790 objects as of 19-Apr-2024
HD Live streaming from Space Station
objects crossing your sky now

PSLV DEB

Track PSLV DEB now!
10-day predictions


NORAD ID: 35536
Int'l Code: 2001-049QL
Perigee: 680.6 km
Apogee: 1,294.9 km
Inclination: 98.7 °
Period: 104.7 minutes
Semi major axis: 7358 km
RCS: 0.0116 m2 (small)
Launch date: October 22, 2001
Source: India (IND)
Launch site: SRIHARIKOTA (SRI)

Note: This is SATELLITE DEBRIS
Your satellite tracking list
Your tracking list is empty




NASA's NSSDC Master Catalog

Two Line Element Set (TLE):
1 35536U 01049QL  24107.56466588  .00001444  00000-0  81910-3 0  9993
2 35536  98.6846 218.4018 0417456 324.5808  32.8261 13.75297585 37932
Source of the keplerian elements: AFSPC